sat.trackr.live / text

‹ back to catalog

TIANMU-1 03

NORAD 55973 · 2023-039A

PAYLOAD ACTIVE UNKNOWN

§ Identity

Operator
Country
PRC
Launch date
2023-03-22
Launch site
JSC
Launch vehicle
Mass (kg)
RCS (m²)

Purposes: earth_obs

External: N2YO · Heavens-Above · Gunter

§ Orbital elements

Epoch: 2026-05-25T05:10:55.132896Z

Period
93.11 min
Inclination
97.5231°
Eccentricity
0.0003572
Mean motion
15.46539219 rev/d
Perigee alt
424.4 km
Apogee alt
429.3 km
Semi-major
6,805.0 km
B*
3.0153e-4
RAAN
318.2999°
Arg perigee
158.3353°
Mean anomaly
201.8048°
Rev number
17,728

§ Raw data

TIANMU-1 031 55973U 23039A   26145.21591589  .00014901  00000+0  30153-3 0  99932 55973  97.5231 318.2999 0003572 158.3353 201.8048 15.46539219177287

JSON: /api/v1/satellites/55973 · /tle

For live sub-satellite position, see the globe view (requires WebGL).

§ Visibility from observer

Set your observer location to see the next 7 days of passes ≥ 10°. The values pass through the URL so the page stays shareable.

No JS? Fill the form by hand. The geolocation button needs JavaScript.